User: anonymous   Login
Location: Bangkok
(13.7500°N, 100.5170°E)
Time: 18:07:34
(UTC+07:00)
Language:

SPOT 1/Viking Rocket - Orbit

View from above orbital plane
View from above orbital plane
View from above satellite
View from above satellite

Ground track
Ground track

The orbit data is extracted from the following two-line orbital elements,

1 16615U 86019C   17291.15882247  .00000040  00000-0  31549-4 0  9990
2 16615  98.5996 357.3355 0012496  47.8300 340.3887 14.31677125657099
Epoch (UTC): 18 October 2017 03:48:42
Eccentricity: 0.0012496
inclination: 98.5996°
perigee height: 777 km
apogee height: 795 km
right ascension of ascending node: 357.3355°
argument of perigee: 47.8300°
revolutions per day: 14.31677125
mean anomaly at epoch: 340.3887°
orbit number at epoch: 65709

The dashed part of the orbit path shows where the satellite is in the earth's shadow,  

DLR